Regional Weather Roundup
Issued by NWS

Home | Current Version | Previous Version | Graphics & Text | Print | Product List | Glossary On
Versions: 1 2 3 4 5 6 7 8 9 10 11 12 13 14 15 16 17 18 19 20 21 22 23 24 25 26 27 28 29 30 31 32 33 34 35 36 37 38 39 40 41 42 43 44 45 46 47 48 49 50
000
ASUS43 KLMK 221810
RWRKY
KENTUCKY REGIONAL WEATHER ROUNDUP
NATIONAL WEATHER SERVICE LOUISVILLE KY
200 PM EDT FRI JUL 22 2016

NOTE "FAIR" INDICATES FEW OR NO CLOUDS BELOW 12,000 FEET
WITH NO SIGNIFICANT WEATHER AND/OR OBSTRUCTIONS TO VISIBILITY.

KYZ001>023-026-027-061>063-070>075-221900-
WESTERN AND SOUTH CENTRAL KENTUCKY

CITY           SKY/WX    TMP DP  RH WIND       PRES   REMARKS
PADUCAH        CLOUDY    77  73  87 S8        30.05F
HENDERSON      CLOUDY    81  72  74 CALM      30.02S
OWENSBORO      CLOUDY    84  73  69 S5        30.05S HX  90
HOPKINSVILLE   CLOUDY    90  78  68 W6        30.06F HX 103
BOWLING GREEN  PTSUNNY   90  76  63 VRB5      30.07F HX 101
GLASGOW        PTSUNNY   90  74  59 CALM      30.09F HX  99
$$

KYZ024-025-028>034-038-045-046-053-221900-
NORTH CENTRAL KENTUCKY

CITY           SKY/WX    TMP DP  RH WIND       PRES   REMARKS
LOUISVILLE/SDF CLOUDY    87  72  60 W5        30.07S HX  93
LOUISVILLE/LOU CLOUDY    86  70  58 CALM      30.08S HX  90
FORT KNOX      CLOUDY    87  73  64 W3        30.06F HX  94
$$

KYZ035>037-039>044-047>052-055>060-089>105-221900-
NORTHEAST KENTUCKY

CITY           SKY/WX    TMP DP  RH WIND       PRES   REMARKS
LEXINGTON      CLOUDY    88  74  63 W7        30.11S HX  96
COVINGTON      CLOUDY    84  75  74 W3        30.09R HX  92
FRANKFORT      MOSUNNY   85  74  69 W8        30.09R HX  92
$$

KYZ054-064>069-076>088-106>120-221900-
SOUTHEAST KENTUCKY

CITY           SKY/WX    TMP DP  RH WIND       PRES   REMARKS
JACKSON        CLOUDY    87  69  54 VRB3      30.13F HX  91
LONDON         CLOUDY    87  68  52 CALM      30.13R HX  90
SOMERSET       CLOUDY    86  68  54 W6        30.12F
MIDDLESBORO    PTSUNNY   89  71  55 NW3       30.12F HX  95
MONTICELLO     CLOUDY   N/A N/A N/A W7        30.13S
$$





USA.gov is the U.S. government's official web portal to all federal, state and local government web resources and services.